STARLINK-3329 (50827 NORAD) Tracking and Keplerian Element Data

This shows tracking and keplerian element data for the satellite.

Feedback or suggestion? Click here.




ElementValue
Catalog50827
NameSTARLINK-3329
Epoch Orbit130
Epoch Day140.58334491
Epoch Year2022
RAAN285.0692
Inclination53.2178
Eccentricity0.000176
Argument of Perigee43.3012
Mean Anonmoly23.2096
Mean Motion15.08858698
Decay Rate-0.0004146
L11 50827U 22001AA 22140.58334491 -.00041460 00000+0 -26006-2 0 9995
L22 50827 53.2178 285.0692 0001760 43.3012 23.2096 15.08858698 1303

Live tracking and technical data element details for STARLINK-3329 (NORAD 50827). STARLINK-3329 can be tracked NOW for your location showing map with azimuth and elevation plus other details from your city location.

Track the satellite on the map from your city or location and see movement details for azimuth, elevation, latitude, longitude, range, height, and movement on the map or in text.







IsCatalogInMostPopularTable: catalog: 50827, numindb: 36
Update: records affected: 1



GetName: 50827 STARLINK-3329

Hit Count: updated at: Sun, 22 May 2022 04:29:52 GMT